owner,sensor,date,latitude,longitude,air_pressure(mBar),qcFlag 
TABS,ioos:station:wmo:42047:1,2017-09-01T00:00:00Z,27.8966,-93.5973,1013.49,11111222 
TABS,ioos:station:wmo:42047:1,2017-09-01T00:30:00Z,27.8966,-93.5973,1013.63,11111222 
TABS,ioos:station:wmo:42047:1,2017-09-01T01:00:00Z,27.8966,-93.5973,1013.76,11111222 
TABS,ioos:station:wmo:42047:1,2017-09-01T01:30:00Z,27.8966,-93.5973,1013.81,11111222 
TABS,ioos:station:wmo:42047:1,2017-09-01T02:00:00Z,27.8966,-93.5973,1014.19,11111222 
TABS,ioos:station:wmo:42047:1,2017-09-01T02:30:00Z,27.8966,-93.5973,1014.52,11111222 
TABS,ioos:station:wmo:42047:1,2017-09-01T03:00:00Z,27.8966,-93.5973,1014.6,11111222 
TABS,ioos:station:wmo:42047:1,2017-09-01T03:30:00Z,27.8966,-93.5973,1014.66,11111222 
TABS,ioos:station:wmo:42047:1,2017-09-01T04:00:00Z,27.8966,-93.5973,1014.63,11111222 
TABS,ioos:station:wmo:42047:1,2017-09-01T04:30:00Z,27.8966,-93.5973,1014.71,11111222 
TABS,ioos:station:wmo:42047:1,2017-09-01T05:00:00Z,27.8966,-93.5973,1014.56,11111222 
TABS,ioos:station:wmo:42047:1,2017-09-01T05:30:00Z,27.8966,-93.5973,1014.52,11111222 
TABS,ioos:station:wmo:42047:1,2017-09-01T06:00:00Z,27.8966,-93.5973,1014.28,11111222 
TABS,ioos:station:wmo:42047:1,2017-09-01T06:30:00Z,27.8966,-93.5973,1014.19,11111222 
TABS,ioos:station:wmo:42047:1,2017-09-01T07:00:00Z,27.8966,-93.5973,1014.37,11111222 
TABS,ioos:station:wmo:42047:1,2017-09-01T07:30:00Z,27.8966,-93.5973,1014.33,11111222 
TABS,ioos:station:wmo:42047:1,2017-09-01T08:00:00Z,27.8966,-93.5973,1014.37,11111222 
TABS,ioos:station:wmo:42047:1,2017-09-01T08:30:00Z,27.8966,-93.5973,1014.55,11111222 
TABS,ioos:station:wmo:42047:1,2017-09-01T09:00:00Z,27.8966,-93.5973,1014.61,11111222 
TABS,ioos:station:wmo:42047:1,2017-09-01T09:30:00Z,27.8966,-93.5973,1014.8,11111222 
TABS,ioos:station:wmo:42047:1,2017-09-01T10:00:00Z,27.8966,-93.5973,1014.87,11111222 
TABS,ioos:station:wmo:42047:1,2017-09-01T10:30:00Z,27.8966,-93.5973,1015.15,11111222 
TABS,ioos:station:wmo:42047:1,2017-09-01T11:00:00Z,27.8966,-93.5973,1015.38,11111222 
TABS,ioos:station:wmo:42047:1,2017-09-01T11:30:00Z,27.8966,-93.5973,1015.56,11111222 
TABS,ioos:station:wmo:42047:1,2017-09-01T12:00:00Z,27.8966,-93.5973,1015.79,11111222 
TABS,ioos:station:wmo:42047:1,2017-09-01T12:30:00Z,27.8966,-93.5973,1015.99,11111222 
TABS,ioos:station:wmo:42047:1,2017-09-01T13:00:00Z,27.8966,-93.5973,1016.15,11111222 
TABS,ioos:station:wmo:42047:1,2017-09-01T13:30:00Z,27.8966,-93.5973,1016.34,11111222 
TABS,ioos:station:wmo:42047:1,2017-09-01T14:00:00Z,27.8966,-93.5973,1016.54,11111222 
TABS,ioos:station:wmo:42047:1,2017-09-01T14:30:00Z,27.8966,-93.5973,1016.81,11111222 
TABS,ioos:station:wmo:42047:1,2017-09-01T15:00:00Z,27.8966,-93.5973,1017.14,11111222 
TABS,ioos:station:wmo:42047:1,2017-09-01T15:30:00Z,27.8966,-93.5973,1017.32,11111222 
TABS,ioos:station:wmo:42047:1,2017-09-01T16:00:00Z,27.8966,-93.5973,1017.29,11111222 
TABS,ioos:station:wmo:42047:1,2017-09-01T16:30:00Z,27.8966,-93.5973,1017.16,11111222 
TABS,ioos:station:wmo:42047:1,2017-09-01T17:00:00Z,27.8966,-93.5973,1017.34,11111222 
TABS,ioos:station:wmo:42047:1,2017-09-01T17:30:00Z,27.8966,-93.5973,1017.26,11111222 
TABS,ioos:station:wmo:42047:1,2017-09-01T18:00:00Z,27.8966,-93.5973,1017.13,11111222 
TABS,ioos:station:wmo:42047:1,2017-09-01T18:30:00Z,27.8966,-93.5973,1017.28,11111222 
TABS,ioos:station:wmo:42047:1,2017-09-01T19:00:00Z,27.8966,-93.5973,1016.86,11111222 
TABS,ioos:station:wmo:42047:1,2017-09-01T19:30:00Z,27.8966,-93.5973,1016.5,11111222 
TABS,ioos:station:wmo:42047:1,2017-09-01T20:00:00Z,27.8966,-93.5973,1015.97,11111222 
TABS,ioos:station:wmo:42047:1,2017-09-01T20:30:00Z,27.8966,-93.5973,1015.64,11111222 
TABS,ioos:station:wmo:42047:1,2017-09-01T21:00:00Z,27.8966,-93.5973,1015.44,11111222 
TABS,ioos:station:wmo:42047:1,2017-09-01T21:30:00Z,27.8966,-93.5973,1015.49,11111222 
TABS,ioos:station:wmo:42047:1,2017-09-01T22:00:00Z,27.8966,-93.5973,1015.37,11111222 
TABS,ioos:station:wmo:42047:1,2017-09-01T22:30:00Z,27.8966,-93.5973,1015.38,11111222 
TABS,ioos:station:wmo:42047:1,2017-09-01T23:00:00Z,27.8966,-93.5973,1015.53,11111222 
TABS,ioos:station:wmo:42047:1,2017-09-01T23:30:00Z,27.8966,-93.5973,1015.59,11111222 
TABS,ioos:station:wmo:42047:1,2017-09-02T00:00:00Z,27.8966,-93.5973,1015.65,11111222 
TABS,ioos:station:wmo:42047:1,2017-09-02T00:30:00Z,27.8966,-93.5973,1015.59,11111222 
TABS,ioos:station:wmo:42047:1,2017-09-02T01:00:00Z,27.8966,-93.5973,1015.57,11111222 
TABS,ioos:station:wmo:42047:1,2017-09-02T01:30:00Z,27.8966,-93.5973,1015.79,11111222 
TABS,ioos:station:wmo:42047:1,2017-09-02T02:00:00Z,27.8966,-93.5973,1015.92,11111222 
TABS,ioos:station:wmo:42047:1,2017-09-02T02:30:00Z,27.8966,-93.5973,1016.15,11111222 
TABS,ioos:station:wmo:42047:1,2017-09-02T03:00:00Z,27.8966,-93.5973,1016.39,11111222 
TABS,ioos:station:wmo:42047:1,2017-09-02T03:30:00Z,27.8966,-93.5973,1016.4,11111222 
TABS,ioos:station:wmo:42047:1,2017-09-02T04:00:00Z,27.8966,-93.5973,1016.71,11111222 
TABS,ioos:station:wmo:42047:1,2017-09-02T04:30:00Z,27.8966,-93.5973,1016.62,11111222 
TABS,ioos:station:wmo:42047:1,2017-09-02T05:00:00Z,27.8966,-93.5973,1016.47,11111222 
TABS,ioos:station:wmo:42047:1,2017-09-02T05:30:00Z,27.8966,-93.5973,1016.43,11111222 
TABS,ioos:station:wmo:42047:1,2017-09-02T06:00:00Z,27.8966,-93.5973,1016.44,11111222 
TABS,ioos:station:wmo:42047:1,2017-09-02T06:30:00Z,27.8966,-93.5973,1016.37,11111222 
TABS,ioos:station:wmo:42047:1,2017-09-02T07:00:00Z,27.8966,-93.5973,1016.36,11111222 
TABS,ioos:station:wmo:42047:1,2017-09-02T07:30:00Z,27.8966,-93.5973,1016.15,11111222 
TABS,ioos:station:wmo:42047:1,2017-09-02T08:00:00Z,27.8966,-93.5973,1015.91,11111222 
TABS,ioos:station:wmo:42047:1,2017-09-02T08:30:00Z,27.8966,-93.5973,1015.48,11111222 
TABS,ioos:station:wmo:42047:1,2017-09-02T09:00:00Z,27.8966,-93.5973,1015.51,11111222 
TABS,ioos:station:wmo:42047:1,2017-09-02T09:30:00Z,27.8966,-93.5973,1015.61,11111222 
TABS,ioos:station:wmo:42047:1,2017-09-02T10:00:00Z,27.8966,-93.5973,1015.94,11111222 
TABS,ioos:station:wmo:42047:1,2017-09-02T10:30:00Z,27.8966,-93.5973,1016.37,11111222 
TABS,ioos:station:wmo:42047:1,2017-09-02T11:00:00Z,27.8966,-93.5973,1016.38,11111222 
TABS,ioos:station:wmo:42047:1,2017-09-02T11:30:00Z,27.8966,-93.5973,1016.58,11111222 
TABS,ioos:station:wmo:42047:1,2017-09-02T12:00:00Z,27.8966,-93.5973,1016.73,11111222 
TABS,ioos:station:wmo:42047:1,2017-09-02T12:30:00Z,27.8966,-93.5973,1017.0,11111222 
TABS,ioos:station:wmo:42047:1,2017-09-02T13:00:00Z,27.8966,-93.5973,1017.26,11111222 
TABS,ioos:station:wmo:42047:1,2017-09-02T13:30:00Z,27.8966,-93.5973,1017.58,11111222 
TABS,ioos:station:wmo:42047:1,2017-09-02T14:00:00Z,27.8966,-93.5973,1017.84,11111222 
TABS,ioos:station:wmo:42047:1,2017-09-02T14:30:00Z,27.8966,-93.5973,1018.14,11111222 
TABS,ioos:station:wmo:42047:1,2017-09-02T15:00:00Z,27.8966,-93.5973,1018.26,11111222 
TABS,ioos:station:wmo:42047:1,2017-09-02T15:30:00Z,27.8966,-93.5973,1018.22,11111222 
TABS,ioos:station:wmo:42047:1,2017-09-02T16:00:00Z,27.8966,-93.5973,1018.31,11111222 
TABS,ioos:station:wmo:42047:1,2017-09-02T16:30:00Z,27.8966,-93.5973,1018.51,11111222 
TABS,ioos:station:wmo:42047:1,2017-09-02T17:00:00Z,27.8966,-93.5973,1018.36,11111222 
TABS,ioos:station:wmo:42047:1,2017-09-02T17:30:00Z,27.8966,-93.5973,1018.3,11111222 
TABS,ioos:station:wmo:42047:1,2017-09-02T18:00:00Z,27.8966,-93.5973,1018.19,11111222 
TABS,ioos:station:wmo:42047:1,2017-09-02T18:30:00Z,27.8966,-93.5973,1018.11,11111222 
TABS,ioos:station:wmo:42047:1,2017-09-02T19:00:00Z,27.8966,-93.5973,1018.08,11111222 
TABS,ioos:station:wmo:42047:1,2017-09-02T19:30:00Z,27.8966,-93.5973,1017.72,11111222 
TABS,ioos:station:wmo:42047:1,2017-09-02T20:00:00Z,27.8966,-93.5973,1017.4,11111222 
TABS,ioos:station:wmo:42047:1,2017-09-02T20:30:00Z,27.8966,-93.5973,1017.07,11111222 
TABS,ioos:station:wmo:42047:1,2017-09-02T21:00:00Z,27.8966,-93.5973,1016.84,11111222 
TABS,ioos:station:wmo:42047:1,2017-09-02T21:30:00Z,27.8966,-93.5973,1016.53,11111222 
TABS,ioos:station:wmo:42047:1,2017-09-02T22:00:00Z,27.8966,-93.5973,1016.32,11111222 
TABS,ioos:station:wmo:42047:1,2017-09-02T22:30:00Z,27.8966,-93.5973,1016.34,11111222 
TABS,ioos:station:wmo:42047:1,2017-09-02T23:00:00Z,27.8966,-93.5973,1016.54,11111222 
TABS,ioos:station:wmo:42047:1,2017-09-02T23:30:00Z,27.8966,-93.5973,1016.52,11111222 
TABS,ioos:station:wmo:42047:1,2017-09-03T00:00:00Z,27.8966,-93.5973,1016.66,11111222 
TABS,ioos:station:wmo:42047:1,2017-09-03T00:30:00Z,27.8966,-93.5973,1016.71,11111222 
TABS,ioos:station:wmo:42047:1,2017-09-03T01:00:00Z,27.8966,-93.5973,1017.1,11111222 
TABS,ioos:station:wmo:42047:1,2017-09-03T01:30:00Z,27.8966,-93.5973,1017.38,11111222 
TABS,ioos:station:wmo:42047:1,2017-09-03T02:00:00Z,27.8966,-93.5973,1017.36,11111222 
TABS,ioos:station:wmo:42047:1,2017-09-03T02:30:00Z,27.8966,-93.5973,1017.78,11111222 
TABS,ioos:station:wmo:42047:1,2017-09-03T03:00:00Z,27.8966,-93.5973,1018.02,11111222 
TABS,ioos:station:wmo:42047:1,2017-09-03T03:30:00Z,27.8966,-93.5973,1018.08,11111222 
TABS,ioos:station:wmo:42047:1,2017-09-03T04:00:00Z,27.8966,-93.5973,1017.91,11111222 
TABS,ioos:station:wmo:42047:1,2017-09-03T04:30:00Z,27.8966,-93.5973,1017.93,11111222 
TABS,ioos:station:wmo:42047:1,2017-09-03T05:00:00Z,27.8966,-93.5973,1017.93,11111222 
TABS,ioos:station:wmo:42047:1,2017-09-03T05:30:00Z,27.8966,-93.5973,1017.89,11111222 
TABS,ioos:station:wmo:42047:1,2017-09-03T06:00:00Z,27.8966,-93.5973,1017.6,11111222 
TABS,ioos:station:wmo:42047:1,2017-09-03T06:30:00Z,27.8966,-93.5973,1017.39,11111222 
TABS,ioos:station:wmo:42047:1,2017-09-03T07:00:00Z,27.8966,-93.5973,1017.45,11111222 
TABS,ioos:station:wmo:42047:1,2017-09-03T07:30:00Z,27.8966,-93.5973,1017.36,11111222 
TABS,ioos:station:wmo:42047:1,2017-09-03T08:00:00Z,27.8966,-93.5973,1016.86,11111222 
TABS,ioos:station:wmo:42047:1,2017-09-03T08:30:00Z,27.8966,-93.5973,1016.85,11111222 
TABS,ioos:station:wmo:42047:1,2017-09-03T09:00:00Z,27.8966,-93.5973,1016.84,11111222 
TABS,ioos:station:wmo:42047:1,2017-09-03T09:30:00Z,27.8966,-93.5973,1017.22,11111222 
TABS,ioos:station:wmo:42047:1,2017-09-03T10:00:00Z,27.8966,-93.5973,1017.23,11111222 
TABS,ioos:station:wmo:42047:1,2017-09-03T10:30:00Z,27.8966,-93.5973,1017.53,11111222 
TABS,ioos:station:wmo:42047:1,2017-09-03T11:00:00Z,27.8966,-93.5973,1017.78,11111222 
TABS,ioos:station:wmo:42047:1,2017-09-03T11:30:00Z,27.8966,-93.5973,1017.89,11111222 
TABS,ioos:station:wmo:42047:1,2017-09-03T12:00:00Z,27.8966,-93.5973,1018.05,11111222 
TABS,ioos:station:wmo:42047:1,2017-09-03T12:30:00Z,27.8966,-93.5973,1018.15,11111222 
TABS,ioos:station:wmo:42047:1,2017-09-03T13:00:00Z,27.8966,-93.5973,1018.48,11111222 
TABS,ioos:station:wmo:42047:1,2017-09-03T13:30:00Z,27.8966,-93.5973,1018.58,11111222 
TABS,ioos:station:wmo:42047:1,2017-09-03T14:00:00Z,27.8966,-93.5973,1018.72,11111222 
TABS,ioos:station:wmo:42047:1,2017-09-03T14:30:00Z,27.8966,-93.5973,1019.09,11111222 
TABS,ioos:station:wmo:42047:1,2017-09-03T15:00:00Z,27.8966,-93.5973,1019.34,11111222 
TABS,ioos:station:wmo:42047:1,2017-09-03T15:30:00Z,27.8966,-93.5973,1019.33,11111222 
TABS,ioos:station:wmo:42047:1,2017-09-03T16:00:00Z,27.8966,-93.5973,1019.56,11111222 
TABS,ioos:station:wmo:42047:1,2017-09-03T16:30:00Z,27.8966,-93.5973,1019.49,11111222 
TABS,ioos:station:wmo:42047:1,2017-09-03T17:00:00Z,27.8966,-93.5973,1019.41,11111222 
TABS,ioos:station:wmo:42047:1,2017-09-03T17:30:00Z,27.8966,-93.5973,1019.18,11111222 
TABS,ioos:station:wmo:42047:1,2017-09-03T18:00:00Z,27.8966,-93.5973,1018.96,11111222 
TABS,ioos:station:wmo:42047:1,2017-09-03T18:30:00Z,27.8966,-93.5973,1018.71,11111222 
TABS,ioos:station:wmo:42047:1,2017-09-03T19:00:00Z,27.8966,-93.5973,1018.39,11111222 
TABS,ioos:station:wmo:42047:1,2017-09-03T19:30:00Z,27.8966,-93.5973,1017.88,11111222 
TABS,ioos:station:wmo:42047:1,2017-09-03T20:00:00Z,27.8966,-93.5973,1017.67,11111222 
TABS,ioos:station:wmo:42047:1,2017-09-03T20:30:00Z,27.8966,-93.5973,1017.39,11111222 
TABS,ioos:station:wmo:42047:1,2017-09-03T21:00:00Z,27.8966,-93.5973,1017.33,11111222 
TABS,ioos:station:wmo:42047:1,2017-09-03T21:30:00Z,27.8966,-93.5973,1017.28,11111222 
TABS,ioos:station:wmo:42047:1,2017-09-03T22:00:00Z,27.8966,-93.5973,1017.18,11111222 
TABS,ioos:station:wmo:42047:1,2017-09-03T22:30:00Z,27.8966,-93.5973,1017.22,11111222 
TABS,ioos:station:wmo:42047:1,2017-09-03T23:00:00Z,27.8966,-93.5973,1017.02,11111222 
TABS,ioos:station:wmo:42047:1,2017-09-03T23:30:00Z,27.8966,-93.5973,1017.0,11111222 
TABS,ioos:station:wmo:42047:1,2017-09-04T00:00:00Z,27.8966,-93.5973,1016.97,11111222 
TABS,ioos:station:wmo:42047:1,2017-09-04T00:30:00Z,27.8966,-93.5973,1016.97,11111222 
TABS,ioos:station:wmo:42047:1,2017-09-04T01:00:00Z,27.8966,-93.5973,1017.16,11111222 
TABS,ioos:station:wmo:42047:1,2017-09-04T01:30:00Z,27.8966,-93.5973,1017.42,11111222 
TABS,ioos:station:wmo:42047:1,2017-09-04T02:00:00Z,27.8966,-93.5973,1017.59,11111222 
TABS,ioos:station:wmo:42047:1,2017-09-04T02:30:00Z,27.8966,-93.5973,1017.95,11111222 
TABS,ioos:station:wmo:42047:1,2017-09-04T03:00:00Z,27.8966,-93.5973,1018.2,11111222 
TABS,ioos:station:wmo:42047:1,2017-09-04T03:30:00Z,27.8966,-93.5973,1018.21,11111222 
TABS,ioos:station:wmo:42047:1,2017-09-04T04:00:00Z,27.8966,-93.5973,1017.95,11111222 
TABS,ioos:station:wmo:42047:1,2017-09-04T04:30:00Z,27.8966,-93.5973,1017.73,11111222 
TABS,ioos:station:wmo:42047:1,2017-09-04T05:00:00Z,27.8966,-93.5973,1017.68,11111222 
TABS,ioos:station:wmo:42047:1,2017-09-04T05:30:00Z,27.8966,-93.5973,1017.3,11111222 
TABS,ioos:station:wmo:42047:1,2017-09-04T06:00:00Z,27.8966,-93.5973,1017.02,11111222 
TABS,ioos:station:wmo:42047:1,2017-09-04T06:30:00Z,27.8966,-93.5973,1016.73,11111222 
TABS,ioos:station:wmo:42047:1,2017-09-04T07:00:00Z,27.8966,-93.5973,1016.39,11111222 
TABS,ioos:station:wmo:42047:1,2017-09-04T07:30:00Z,27.8966,-93.5973,1016.29,11111222 
TABS,ioos:station:wmo:42047:1,2017-09-04T08:00:00Z,27.8966,-93.5973,1016.15,11111222 
TABS,ioos:station:wmo:42047:1,2017-09-04T08:30:00Z,27.8966,-93.5973,1015.98,11111222 
TABS,ioos:station:wmo:42047:1,2017-09-04T09:00:00Z,27.8966,-93.5973,1015.96,11111222 
TABS,ioos:station:wmo:42047:1,2017-09-04T09:30:00Z,27.8966,-93.5973,1015.98,11111222 
TABS,ioos:station:wmo:42047:1,2017-09-04T10:00:00Z,27.8966,-93.5973,1015.99,11111222 
TABS,ioos:station:wmo:42047:1,2017-09-04T10:30:00Z,27.8966,-93.5973,1016.21,11111222 
TABS,ioos:station:wmo:42047:1,2017-09-04T11:00:00Z,27.8966,-93.5973,1016.41,11111222 
TABS,ioos:station:wmo:42047:1,2017-09-04T11:30:00Z,27.8966,-93.5973,1016.48,11111222 
TABS,ioos:station:wmo:42047:1,2017-09-04T12:00:00Z,27.8966,-93.5973,1016.63,11111222 
TABS,ioos:station:wmo:42047:1,2017-09-04T12:30:00Z,27.8966,-93.5973,1016.91,11111222 
TABS,ioos:station:wmo:42047:1,2017-09-04T13:00:00Z,27.8966,-93.5973,1017.12,11111222 
TABS,ioos:station:wmo:42047:1,2017-09-04T13:30:00Z,27.8966,-93.5973,1017.24,11111222 
TABS,ioos:station:wmo:42047:1,2017-09-04T14:00:00Z,27.8966,-93.5973,1017.67,11111222 
TABS,ioos:station:wmo:42047:1,2017-09-04T14:30:00Z,27.8966,-93.5973,1017.83,11111222 
TABS,ioos:station:wmo:42047:1,2017-09-04T15:00:00Z,27.8966,-93.5973,1018.22,11111222 
TABS,ioos:station:wmo:42047:1,2017-09-04T15:30:00Z,27.8966,-93.5973,1018.23,11111222 
TABS,ioos:station:wmo:42047:1,2017-09-04T16:00:00Z,27.8966,-93.5973,1018.08,11111222 
TABS,ioos:station:wmo:42047:1,2017-09-04T16:30:00Z,27.8966,-93.5973,1018.19,11111222 
TABS,ioos:station:wmo:42047:1,2017-09-04T17:00:00Z,27.8966,-93.5973,1017.84,11111222 
TABS,ioos:station:wmo:42047:1,2017-09-04T17:30:00Z,27.8966,-93.5973,1017.67,11111222 
TABS,ioos:station:wmo:42047:1,2017-09-04T18:00:00Z,27.8966,-93.5973,1017.56,11111222 
TABS,ioos:station:wmo:42047:1,2017-09-04T18:30:00Z,27.8966,-93.5973,1017.26,11111222 
TABS,ioos:station:wmo:42047:1,2017-09-04T19:00:00Z,27.8966,-93.5973,1016.51,11111222 
TABS,ioos:station:wmo:42047:1,2017-09-04T19:30:00Z,27.8966,-93.5973,1015.88,11111222 
TABS,ioos:station:wmo:42047:1,2017-09-04T20:00:00Z,27.8966,-93.5973,1016.03,11111222 
TABS,ioos:station:wmo:42047:1,2017-09-04T20:30:00Z,27.8966,-93.5973,1015.87,11111222 
TABS,ioos:station:wmo:42047:1,2017-09-04T21:00:00Z,27.8966,-93.5973,1015.45,11111222 
TABS,ioos:station:wmo:42047:1,2017-09-04T21:30:00Z,27.8966,-93.5973,1015.44,11111222 
TABS,ioos:station:wmo:42047:1,2017-09-04T22:00:00Z,27.8966,-93.5973,1015.34,11111222 
TABS,ioos:station:wmo:42047:1,2017-09-04T22:30:00Z,27.8966,-93.5973,1015.16,11111222 
TABS,ioos:station:wmo:42047:1,2017-09-04T23:00:00Z,27.8966,-93.5973,1015.13,11111222 
TABS,ioos:station:wmo:42047:1,2017-09-04T23:30:00Z,27.8966,-93.5973,1014.96,11111222 
TABS,ioos:station:wmo:42047:1,2017-09-05T00:00:00Z,27.8966,-93.5973,1014.64,11111222 
TABS,ioos:station:wmo:42047:1,2017-09-05T00:30:00Z,27.8966,-93.5973,1014.52,11111222 
TABS,ioos:station:wmo:42047:1,2017-09-05T01:00:00Z,27.8966,-93.5973,1014.86,11111222 
TABS,ioos:station:wmo:42047:1,2017-09-05T01:30:00Z,27.8966,-93.5973,1015.2,11111222 
TABS,ioos:station:wmo:42047:1,2017-09-05T02:00:00Z,27.8966,-93.5973,1015.53,11111222 
TABS,ioos:station:wmo:42047:1,2017-09-05T02:30:00Z,27.8966,-93.5973,1015.81,11111222 
TABS,ioos:station:wmo:42047:1,2017-09-05T03:00:00Z,27.8966,-93.5973,1016.04,11111222 
TABS,ioos:station:wmo:42047:1,2017-09-05T03:30:00Z,27.8966,-93.5973,1016.06,11111222 
TABS,ioos:station:wmo:42047:1,2017-09-05T04:00:00Z,27.8966,-93.5973,1016.01,11111222 
TABS,ioos:station:wmo:42047:1,2017-09-05T04:30:00Z,27.8966,-93.5973,1016.12,11111222 
TABS,ioos:station:wmo:42047:1,2017-09-05T05:00:00Z,27.8966,-93.5973,1015.83,11111222 
TABS,ioos:station:wmo:42047:1,2017-09-05T05:30:00Z,27.8966,-93.5973,1015.68,11111222 
TABS,ioos:station:wmo:42047:1,2017-09-05T06:00:00Z,27.8966,-93.5973,1015.34,11111222 
TABS,ioos:station:wmo:42047:1,2017-09-05T06:30:00Z,27.8966,-93.5973,1015.08,11111222 
TABS,ioos:station:wmo:42047:1,2017-09-05T07:00:00Z,27.8966,-93.5973,1015.02,11111222 
TABS,ioos:station:wmo:42047:1,2017-09-05T07:30:00Z,27.8966,-93.5973,1014.71,11111222 
TABS,ioos:station:wmo:42047:1,2017-09-05T08:00:00Z,27.8966,-93.5973,1014.82,11111222 
TABS,ioos:station:wmo:42047:1,2017-09-05T08:30:00Z,27.8966,-93.5973,1014.59,11111222 
TABS,ioos:station:wmo:42047:1,2017-09-05T09:00:00Z,27.8966,-93.5973,1014.62,11111222 
TABS,ioos:station:wmo:42047:1,2017-09-05T09:30:00Z,27.8966,-93.5973,1014.72,11111222 
TABS,ioos:station:wmo:42047:1,2017-09-05T10:00:00Z,27.8966,-93.5973,1014.84,11111222 
TABS,ioos:station:wmo:42047:1,2017-09-05T10:30:00Z,27.8966,-93.5973,1015.03,11111222 
TABS,ioos:station:wmo:42047:1,2017-09-05T11:00:00Z,27.8966,-93.5973,1015.15,11111222 
TABS,ioos:station:wmo:42047:1,2017-09-05T11:30:00Z,27.8966,-93.5973,1015.21,11111222 
TABS,ioos:station:wmo:42047:1,2017-09-05T12:00:00Z,27.8966,-93.5973,1015.74,11111222 
TABS,ioos:station:wmo:42047:1,2017-09-05T12:30:00Z,27.8966,-93.5973,1015.57,11111222 
TABS,ioos:station:wmo:42047:1,2017-09-05T13:00:00Z,27.8966,-93.5973,1015.59,11111222 
TABS,ioos:station:wmo:42047:1,2017-09-05T13:30:00Z,27.8966,-93.5973,1015.66,11111222 
TABS,ioos:station:wmo:42047:1,2017-09-05T14:00:00Z,27.8966,-93.5973,1015.72,11111222 
TABS,ioos:station:wmo:42047:1,2017-09-05T14:30:00Z,27.8966,-93.5973,1015.71,11111222 
TABS,ioos:station:wmo:42047:1,2017-09-05T15:00:00Z,27.8966,-93.5973,1016.19,11111222 
TABS,ioos:station:wmo:42047:1,2017-09-05T15:30:00Z,27.8966,-93.5973,1016.25,11111222 
TABS,ioos:station:wmo:42047:1,2017-09-05T16:00:00Z,27.8966,-93.5973,1016.19,11111222 
TABS,ioos:station:wmo:42047:1,2017-09-05T16:30:00Z,27.8966,-93.5973,1016.1,11111222 
TABS,ioos:station:wmo:42047:1,2017-09-05T17:00:00Z,27.8966,-93.5973,1015.93,11111222 
TABS,ioos:station:wmo:42047:1,2017-09-05T17:30:00Z,27.8966,-93.5973,1016.15,11111222 
TABS,ioos:station:wmo:42047:1,2017-09-05T18:00:00Z,27.8966,-93.5973,1016.25,11111222 
TABS,ioos:station:wmo:42047:1,2017-09-05T18:30:00Z,27.8966,-93.5973,1016.22,11111222 
TABS,ioos:station:wmo:42047:1,2017-09-05T19:00:00Z,27.8966,-93.5973,1015.67,11111222 
TABS,ioos:station:wmo:42047:1,2017-09-05T19:30:00Z,27.8966,-93.5973,1015.35,11111222 
TABS,ioos:station:wmo:42047:1,2017-09-05T20:00:00Z,27.8966,-93.5973,1015.53,11111222 
TABS,ioos:station:wmo:42047:1,2017-09-05T20:30:00Z,27.8966,-93.5973,1014.59,11111222 
TABS,ioos:station:wmo:42047:1,2017-09-05T21:00:00Z,27.8966,-93.5973,1014.76,11111222 
TABS,ioos:station:wmo:42047:1,2017-09-05T21:30:00Z,27.8966,-93.5973,1014.7,11111222 
TABS,ioos:station:wmo:42047:1,2017-09-05T22:00:00Z,27.8966,-93.5973,1014.28,11111222 
TABS,ioos:station:wmo:42047:1,2017-09-05T22:30:00Z,27.8966,-93.5973,1014.36,11111222 
TABS,ioos:station:wmo:42047:1,2017-09-05T23:00:00Z,27.8966,-93.5973,1014.1,11111222 
TABS,ioos:station:wmo:42047:1,2017-09-05T23:30:00Z,27.8966,-93.5973,1013.66,11111222 
TABS,ioos:station:wmo:42047:1,2017-09-06T00:00:00Z,27.8966,-93.5973,1013.53,11111222 
TABS,ioos:station:wmo:42047:1,2017-09-06T00:30:00Z,27.8966,-93.5973,1013.34,11111222 
TABS,ioos:station:wmo:42047:1,2017-09-06T01:00:00Z,27.8966,-93.5973,1013.16,11111222 
TABS,ioos:station:wmo:42047:1,2017-09-06T01:30:00Z,27.8966,-93.5973,1013.48,11111222 
TABS,ioos:station:wmo:42047:1,2017-09-06T02:00:00Z,27.8966,-93.5973,1013.75,11111222 
TABS,ioos:station:wmo:42047:1,2017-09-06T02:30:00Z,27.8966,-93.5973,1013.7,11111222 
TABS,ioos:station:wmo:42047:1,2017-09-06T03:00:00Z,27.8966,-93.5973,1013.96,11111222 
TABS,ioos:station:wmo:42047:1,2017-09-06T03:30:00Z,27.8966,-93.5973,1014.19,11111222 
TABS,ioos:station:wmo:42047:1,2017-09-06T04:00:00Z,27.8966,-93.5973,1014.46,11111222 
TABS,ioos:station:wmo:42047:1,2017-09-06T04:30:00Z,27.8966,-93.5973,1014.59,11111222 
TABS,ioos:station:wmo:42047:1,2017-09-06T05:00:00Z,27.8966,-93.5973,1014.51,11111222 
TABS,ioos:station:wmo:42047:1,2017-09-06T05:30:00Z,27.8966,-93.5973,1014.62,11111222 
TABS,ioos:station:wmo:42047:1,2017-09-06T06:00:00Z,27.8966,-93.5973,1014.47,11111222 
TABS,ioos:station:wmo:42047:1,2017-09-06T06:30:00Z,27.8966,-93.5973,1014.47,11111222 
TABS,ioos:station:wmo:42047:1,2017-09-06T07:00:00Z,27.8966,-93.5973,1014.53,11111222 
TABS,ioos:station:wmo:42047:1,2017-09-06T07:30:00Z,27.8966,-93.5973,1014.38,11111222 
TABS,ioos:station:wmo:42047:1,2017-09-06T08:00:00Z,27.8966,-93.5973,1014.14,11111222 
TABS,ioos:station:wmo:42047:1,2017-09-06T08:30:00Z,27.8966,-93.5973,1013.84,11111222 
TABS,ioos:station:wmo:42047:1,2017-09-06T09:00:00Z,27.8966,-93.5973,1013.25,11111222 
TABS,ioos:station:wmo:42047:1,2017-09-06T09:30:00Z,27.8966,-93.5973,1013.31,11111222 
TABS,ioos:station:wmo:42047:1,2017-09-06T10:00:00Z,27.8966,-93.5973,1012.9,11111222 
TABS,ioos:station:wmo:42047:1,2017-09-06T10:30:00Z,27.8966,-93.5973,1012.59,11111222 
TABS,ioos:station:wmo:42047:1,2017-09-06T11:00:00Z,27.8966,-93.5973,1013.36,11111222 
TABS,ioos:station:wmo:42047:1,2017-09-06T11:30:00Z,27.8966,-93.5973,1013.98,11111222 
TABS,ioos:station:wmo:42047:1,2017-09-06T12:00:00Z,27.8966,-93.5973,1014.4,11111222 
TABS,ioos:station:wmo:42047:1,2017-09-06T12:30:00Z,27.8966,-93.5973,1014.46,11111222 
TABS,ioos:station:wmo:42047:1,2017-09-06T13:00:00Z,27.8966,-93.5973,1014.59,11111222 
TABS,ioos:station:wmo:42047:1,2017-09-06T13:30:00Z,27.8966,-93.5973,1014.94,11111222 
TABS,ioos:station:wmo:42047:1,2017-09-06T14:00:00Z,27.8966,-93.5973,1014.96,11111222 
TABS,ioos:station:wmo:42047:1,2017-09-06T14:30:00Z,27.8966,-93.5973,1015.32,11111222 
TABS,ioos:station:wmo:42047:1,2017-09-06T15:00:00Z,27.8966,-93.5973,1015.51,11111222 
TABS,ioos:station:wmo:42047:1,2017-09-06T15:30:00Z,27.8966,-93.5973,1015.66,11111222 
TABS,ioos:station:wmo:42047:1,2017-09-06T16:00:00Z,27.8966,-93.5973,1015.63,11111222 
TABS,ioos:station:wmo:42047:1,2017-09-06T16:30:00Z,27.8966,-93.5973,1015.59,11111222 
TABS,ioos:station:wmo:42047:1,2017-09-06T17:00:00Z,27.8966,-93.5973,1015.74,11111222 
TABS,ioos:station:wmo:42047:1,2017-09-06T17:30:00Z,27.8966,-93.5973,1015.55,11111222 
TABS,ioos:station:wmo:42047:1,2017-09-06T18:00:00Z,27.8966,-93.5973,1015.49,11111222 
TABS,ioos:station:wmo:42047:1,2017-09-06T18:30:00Z,27.8966,-93.5973,1015.1,11111222 